Datetime,EastMidlands,SouthWales,SouthWest,WestMidlands
2022-12-06 00:00:00,2582.38548,1047.5902199999998,1298.1875400000001,2557.0775
2022-12-06 00:05:00,2591.4108,1042.4323,1334.09486,2554.5125
2022-12-06 00:10:00,2594.9544200000005,1035.01876,1353.05528,2555.56164
2022-12-06 00:15:00,2597.48336,1038.56612,1353.24974,2548.5490250000003
2022-12-06 00:20:00,2599.2312000000006,1036.92072,1354.94612,2551.940966666667
2022-12-06 00:25:00,2602.8577250000003,1032.58878,1356.4984399999998,2556.99838
2022-12-06 00:30:00,2646.3538,1043.6859399999998,1368.3963199999998,2584.4191399999995
2022-12-06 00:35:00,2681.811,1058.07596,1374.34692,2618.6075
2022-12-06 00:40:00,2693.22538,1054.52564,1374.5671200000002,2627.925
2022-12-06 00:45:00,2690.21454,1044.21572,1369.66766,2632.20168
2022-12-06 00:50:00,2686.8044,1050.453225,1366.6187400000001,2639.9062
2022-12-06 00:55:00,2688.3926,1057.3096333333333,1367.39288,2645.9083833333334
2022-12-06 01:00:00,2698.53448,1051.7066200000002,1368.1469200000001,2650.4683400000004
2022-12-06 01:05:00,2691.78184,1048.44122,1365.16724,2643.8550000000005
2022-12-06 01:10:00,2687.07684,1043.32598,1357.20472,2636.58338
2022-12-06 01:15:00,2691.19152,1031.85204,1347.79948,2629.9674999999997
2022-12-06 01:20:00,2684.98834,1027.30082,1343.0164799999998,2619.805
2022-12-06 01:25:00,2676.9161599999998,1025.90956,1340.82846,2617.94164
2022-12-06 01:30:00,2667.73354,1019.582264,1332.9851,2611.3025000000002
2022-12-06 01:35:00,2658.9282,1019.4024,1330.74614,2608.70498
2022-12-06 01:40:00,2640.83718,1015.10905,1324.42182,2609.14918
2022-12-06 01:45:00,2631.00452,1013.089228,1321.30332,2603.73252
2022-12-06 01:50:00,2619.5823000000005,1021.384268,1319.43834,2602.4216
2022-12-06 01:55:00,2616.72596,1012.1768319999999,1316.1971,2597.0364499999996
2022-12-06 02:00:00,2614.65832,1017.089516,1325.92366,2591.4020166666664
2022-12-06 02:05:00,2601.28452,1013.2583979999999,1319.0202,2596.84922
2022-12-06 02:10:00,2593.83414,1034.68006,1311.5684,2585.06918
2022-12-06 02:15:00,2591.94468,1014.6967999999999,1305.9427799999999,2584.9075199999997
2022-12-06 02:20:00,2589.4116599999998,991.088228,1299.2470799999999,2581.02838
2022-12-06 02:25:00,2586.7029800000005,998.0265000000002,1297.26874,2580.99912
2022-12-06 02:30:00,2578.48868,994.2465320000001,1292.23852,2574.2183400000004
2022-12-06 02:35:00,2569.8918000000003,991.6555480000001,1290.6261,2574.5366999999997
2022-12-06 02:40:00,2567.84288,1031.3639079999998,1290.2034600000002,2568.36168
2022-12-06 02:45:00,2552.71512,1035.09935,1282.29364,2561.90082
2022-12-06 02:50:00,2549.2128399999997,1039.32345,1278.924,2562.60916
2022-12-06 02:55:00,2546.5002000000004,1034.0505,1280.2819200000001,2557.73578
2022-12-06 03:00:00,2542.1005,1031.2710600000003,1281.9817800000003,2541.67584
2022-12-06 03:05:00,2539.7760200000002,1030.54508,1274.1691400000002,2533.72754
2022-12-06 03:10:00,2537.21878,1032.38228,1274.6996199999999,2535.3666399999997
2022-12-06 03:15:00,2533.0996,1030.3499,1268.42236,2538.4674600000003
2022-12-06 03:20:00,2532.4408333333336,1027.59426,1265.183,2541.9758
2022-12-06 03:25:00,2527.0419800000004,1023.7863520000003,1261.9944799999998,2539.18834
2022-12-06 03:30:00,2521.94186,1009.6912540000001,1257.4057799999998,2532.8158599999997
2022-12-06 03:35:00,2509.44232,998.98838,1249.73062,2520.8058
2022-12-06 03:40:00,2511.56484,984.960276,1246.3264199999999,2518.5341799999997
2022-12-06 03:45:00,2508.93962,987.5841699999999,1244.32224,2519.06498
2022-12-06 03:50:00,2507.11348,985.76245,1239.41708,2523.26414
2022-12-06 03:55:00,2503.16984,984.9025220000001,1233.9968800000001,2520.8033800000003
2022-12-06 04:00:00,2501.3150400000004,982.079642,1217.8627800000002,2498.22015
2022-12-06 04:05:00,2505.48632,982.857886,1215.4600599999999,2495.28405
2022-12-06 04:10:00,2508.41916,977.539194,1217.72494,2503.2308199999998
2022-12-06 04:15:00,2502.90602,981.4371779999999,1212.5533750000002,2496.80252
2022-12-06 04:20:00,2501.88814,986.395708,1211.4021,2498.08004
2022-12-06 04:25:00,2503.26056,982.635552,1207.3125,2500.33834
2022-12-06 04:30:00,2503.02814,985.9294679999999,1203.0025799999999,2496.85254
2022-12-06 04:35:00,2504.99206,979.167186,1201.97016,2501.0575
2022-12-06 04:40:00,2507.7841,988.712486,1199.27826,2504.2825199999997
2022-12-06 04:45:00,2512.6700599999995,992.59064,1196.40746,2505.56986
2022-12-06 04:50:00,2512.8990400000002,990.179906,1194.4763200000002,2505.6125199999997
2022-12-06 04:55:00,2518.5965,987.037732,1194.23332,2503.9674800000003
2022-12-06 05:00:00,2543.77384,1001.042402,1200.98596,2518.23335
2022-12-06 05:05:00,2569.57612,1014.21618,1212.2588600000001,2539.7556
2022-12-06 05:10:00,2579.1456799999996,1016.021212,1216.7082999999998,2546.2983400000003
2022-12-06 05:15:00,2588.65346,1023.724,1223.1519,2558.6302
2022-12-06 05:20:00,2593.0708600000003,1027.5813500000002,1221.80064,2572.9659333333334
2022-12-06 05:25:00,2601.3357400000004,1042.3383399999998,1222.42214,2575.8924399999996
2022-12-06 05:30:00,2622.9831999999997,1053.1982199999998,1226.1832200000001,2577.5816
2022-12-06 05:35:00,2646.8529800000006,1031.15761,1236.9473,2594.70734
2022-12-06 05:40:00,2661.10326,1034.857668,1243.94526,2611.06332
2022-12-06 05:45:00,2684.1139200000007,1049.65708,1256.88992,2637.38918
2022-12-06 05:50:00,2722.6531600000003,1053.79694,1272.106,2669.50166
2022-12-06 05:55:00,2750.94752,1055.7140200000001,1283.0719599999998,2684.2657
2022-12-06 06:00:00,2811.90768,1069.9695,1311.377225,2734.406933333333
2022-12-06 06:05:00,2865.0556399999996,1099.1621,1343.2140200000001,2798.7983000000004
2022-12-06 06:10:00,2900.3249800000003,1117.7940800000001,1370.3291,2834.0707599999996
2022-12-06 06:15:00,2934.8750250000003,1124.8152200000002,1384.71744,2852.30168
2022-12-06 06:20:00,2974.178133333333,1133.89476,1399.16986,2884.18494
2022-12-06 06:25:00,3012.5937,1146.0112800000002,1411.8248400000002,2906.1658199999993
2022-12-06 06:30:00,3061.7931499999995,1152.5577799999999,1431.5746600000002,2937.37395
2022-12-06 06:35:00,3109.3733666666667,1164.2379800000003,1461.12354,2973.14418
2022-12-06 06:40:00,3144.1951799999997,1182.29658,1482.7759199999998,3011.6513333333332
2022-12-06 06:45:00,3191.59184,1189.4665,1502.6930399999997,3049.1466800000003
2022-12-06 06:50:00,3214.23906,1220.0735,1521.27228,3077.36
2022-12-06 06:55:00,3212.28582,1222.703675,1525.8303799999999,3109.26252
2022-12-06 07:00:00,3262.1751400000003,1243.8968333333332,1524.16105,3162.33918
2022-12-06 07:05:00,3310.1530999999995,1277.35594,1550.0114833333334,3202.320825
2022-12-06 07:10:00,3371.021033333333,1304.12354,1581.61696,3250.4986000000004
2022-12-06 07:15:00,3418.6491799999994,1292.95936,1599.1185200000002,3292.37586
2022-12-06 07:20:00,3438.8713,1286.5309,1613.1731599999998,3318.36668
2022-12-06 07:25:00,3483.13108,1300.727975,1625.967,3336.34375
2022-12-06 07:30:00,3489.69806,1319.36625,1635.60915,3358.1229333333335
2022-12-06 07:35:00,3493.21476,1327.35252,1656.3890999999999,3370.57916
2022-12-06 07:40:00,3510.59332,1344.1585599999999,1662.45998,3369.4316400000002
2022-12-06 07:45:00,3521.5858,1353.38276,1670.6936500000002,3368.3725400000003
2022-12-06 07:50:00,3509.38418,1360.77444,1680.3082166666666,3389.30752
2022-12-06 07:55:00,3555.0978600000003,1372.27676,1689.254925,3390.7989500000003
2022-12-06 08:00:00,3591.6793,1371.6098749999999,1696.73694,3425.3396500000003
2022-12-06 08:05:00,3612.84966,1405.2216666666666,1716.7643500000001,3446.6666750000004
2022-12-06 08:10:00,3625.05968,1408.72242,1721.26378,3445.78545
2022-12-06 08:15:00,3634.42036,1438.56496,1726.5755199999999,3463.8
2022-12-06 08:20:00,3630.95518,1448.5089,1725.4051599999998,3470.452766666667
2022-12-06 08:25:00,3632.5074,1451.87744,1720.22316,3473.3133199999997
2022-12-06 08:30:00,3624.95186,1457.3182000000002,1717.88685,3481.1575
2022-12-06 08:35:00,3636.5448600000004,1455.78624,1727.2667666666666,3470.4058600000003
2022-12-06 08:40:00,3658.67074,1419.3773999999999,1730.8823799999998,3461.1492
2022-12-06 08:45:00,3650.8886600000005,1409.8124400000002,1727.7325399999997,3464.51166
2022-12-06 08:50:00,3659.52514,1402.971425,1733.9367200000002,3487.8599600000002
2022-12-06 08:55:00,3666.5341999999996,1414.6782333333333,1746.5003800000002,3480.3542
2022-12-06 09:00:00,3687.7286599999998,1425.21414,1753.6572200000003,3504.73498
2022-12-06 09:05:00,3679.174,1434.89035,1758.70394,3521.1691799999994
2022-12-06 09:10:00,3691.6956399999995,1436.0418,1754.8450400000002,3525.3916400000003
2022-12-06 09:15:00,3693.03182,1434.94796,1750.5453999999997,3520.2633
2022-12-06 09:20:00,3705.11036,1440.04188,1750.235925,3519.34795
2022-12-06 09:25:00,3704.5417,1448.26532,1753.62155,3545.2722166666667
2022-12-06 09:30:00,3691.0729999999994,1454.45556,1749.5840400000002,3528.9991800000003
2022-12-06 09:35:00,3687.60552,1454.5125799999998,1742.28754,3527.7375
2022-12-06 09:40:00,3693.5688999999998,1442.5664000000002,1734.11542,3518.6092
2022-12-06 09:45:00,3688.62014,1437.9823000000001,1726.9387000000002,3512.8351000000002
2022-12-06 09:50:00,3690.9943399999997,1445.34022,1720.42106,3513.8615000000004
2022-12-06 09:55:00,3687.4644999999996,1477.36166,1715.06192,3508.7025399999998
2022-12-06 10:00:00,3682.0004,1465.0751599999999,1712.2951600000001,3546.42912
2022-12-06 10:05:00,3656.87966,1475.9929,1708.78446,3538.46682
2022-12-06 10:10:00,3657.7659599999997,1496.61666,1705.1409600000002,3539.59754
2022-12-06 10:15:00,3654.4651999999996,1494.4531200000001,1700.96322,3555.6175200000007
2022-12-06 10:20:00,3648.5134800000005,1494.3146,1697.32246,3561.36455
2022-12-06 10:25:00,3668.24948,1489.5792999999999,1696.74782,3569.1617666666666
2022-12-06 10:30:00,3665.0614599999994,1496.74352,1684.87552,3550.92834
2022-12-06 10:35:00,3662.17156,1504.2192800000003,1682.22442,3552.7238500000003
2022-12-06 10:40:00,3667.22526,1509.5435,1676.8293400000002,3551.609733333333
2022-12-06 10:45:00,3672.1784799999996,1490.8183,1670.2326600000001,3549.05832
2022-12-06 10:50:00,3685.6705,1468.49908,1656.4353600000002,3557.6615
2022-12-06 10:55:00,3680.8419999999996,1475.6622199999997,1648.493,3562.54305
2022-12-06 11:00:00,3683.6571799999997,1470.9920000000002,1643.06116,3558.2316999999994
2022-12-06 11:05:00,3699.22355,1473.015125,1641.50794,3547.548725
2022-12-06 11:10:00,3706.3734833333333,1486.3409833333335,1636.24436,3543.1867666666662
2022-12-06 11:15:00,3696.0013,1502.49068,1632.7567800000002,3544.4625199999996
2022-12-06 11:20:00,3702.1528399999997,1494.48184,1634.65498,3541.2292
2022-12-06 11:25:00,3699.0984599999997,1484.9866200000001,1628.72316,3538.0741399999997
2022-12-06 11:30:00,3681.09496,1479.36346,1631.1841200000001,3550.6312000000003
2022-12-06 11:35:00,3679.7146399999997,1452.9513199999997,1623.45816,3553.5402666666664
2022-12-06 11:40:00,3673.16648,1434.96434,1617.81422,3535.6483400000006
2022-12-06 11:45:00,3683.81184,1432.0756800000001,1601.87984,3526.0858
2022-12-06 11:50:00,3691.9738599999996,1421.4455400000002,1593.3536199999999,3521.9383399999997
2022-12-06 11:55:00,3712.58068,1452.5312800000002,1592.48184,3536.7666799999997
2022-12-06 12:00:00,3706.53775,1464.76216,1593.50168,3555.82664
2022-12-06 12:05:00,3738.1804166666666,1462.5848600000002,1588.2069000000001,3552.6191200000003
2022-12-06 12:10:00,3723.0818,1456.9742199999998,1603.6621200000002,3557.70416
2022-12-06 12:15:00,3716.2966400000005,1452.03596,1602.56068,3555.23914
2022-12-06 12:20:00,3717.406,1441.31,1598.13924,3557.6758200000004
2022-12-06 12:25:00,3721.1303399999997,1437.954,1593.8546600000002,3566.9516599999997
2022-12-06 12:30:00,3718.686225,1425.45632,1582.3876,3565.12922
2022-12-06 12:35:00,3716.0417833333336,1426.54836,1582.0864000000001,3569.2807999999995
2022-12-06 12:40:00,3700.8321600000004,1428.1625,1572.8415200000002,3581.4058600000003
2022-12-06 12:45:00,3693.71078,1413.16246,1562.6016599999998,3562.76565
2022-12-06 12:50:00,3689.69504,1410.9346,1559.7437,3550.281266666667
2022-12-06 12:55:00,3693.5378600000004,1411.79542,1552.2467000000001,3541.3741600000003
2022-12-06 13:00:00,3719.73744,1405.2437000000002,1544.98138,3537.16004
2022-12-06 13:05:00,3708.44452,1409.15994,1547.7706,3511.7899599999996
2022-12-06 13:10:00,3680.3914400000003,1393.1103200000002,1546.2631000000001,3493.6254999999996
2022-12-06 13:15:00,3679.32666,1387.23922,1543.0215,3492.8974799999996
2022-12-06 13:20:00,3682.6420199999993,1385.27768,1536.30298,3477.1025199999995
2022-12-06 13:25:00,3680.14764,1392.0580400000001,1541.61098,3468.3775199999995
2022-12-06 13:30:00,3679.7304799999997,1402.65904,1540.25884,3468.8199999999997
2022-12-06 13:35:00,3686.57474,1401.42394,1541.2918400000003,3473.3242
2022-12-06 13:40:00,3671.7409399999997,1397.7069999999999,1545.8724750000001,3478.50916
2022-12-06 13:45:00,3669.7421999999997,1395.4350399999998,1547.7439000000002,3480.9025
2022-12-06 13:50:00,3668.59346,1381.00794,1554.1627,3482.5656499999996
2022-12-06 13:55:00,3663.7275600000003,1395.18602,1560.66508,3490.665266666667
2022-12-06 14:00:00,3653.515180000001,1393.6165,1560.76942,3472.2658600000004
2022-12-06 14:05:00,3632.84098,1374.951,1556.44704,3446.5375
2022-12-06 14:10:00,3634.3803,1400.92948,1565.7466749999999,3457.1076166666667
2022-12-06 14:15:00,3632.8667,1399.633,1572.7337333333332,3452.07412
2022-12-06 14:20:00,3655.4747,1410.11526,1583.5670599999999,3459.8133199999997
2022-12-06 14:25:00,3664.7668400000002,1409.4248200000002,1591.0386,3460.5800000000004
2022-12-06 14:30:00,3655.87784,1393.74354,1595.9669399999998,3472.1166600000006
2022-12-06 14:35:00,3653.0463600000003,1409.0727600000002,1597.6446799999999,3465.8592000000003
2022-12-06 14:40:00,3644.17766,1414.52018,1599.5063999999998,3457.5166799999997
2022-12-06 14:45:00,3651.43108,1422.00466,1607.5471400000001,3453.89416
2022-12-06 14:50:00,3642.3830749999997,1438.62262,1615.0855999999999,3462.1308000000004
2022-12-06 14:55:00,3646.861683333333,1459.74676,1622.8876,3470.4275000000002
2022-12-06 15:00:00,3688.8174,1456.99602,1643.347066666667,3458.3400200000005
2022-12-06 15:05:00,3699.9043399999996,1457.20892,1666.70822,3475.5802
2022-12-06 15:10:00,3712.44282,1462.04998,1675.03276,3487.726366666667
2022-12-06 15:15:00,3727.1678,1451.24702,1679.8172,3508.97498
2022-12-06 15:20:00,3730.84998,1421.64852,1692.4450399999998,3519.2433399999995
2022-12-06 15:25:00,3738.6607599999998,1422.1339,1700.90414,3534.38836
2022-12-06 15:30:00,3748.7375,1434.66762,1704.6761000000001,3545.25
2022-12-06 15:35:00,3773.62926,1448.7630800000002,1717.6289399999998,3552.9016199999996
2022-12-06 15:40:00,3808.931075,1474.9738,1736.06248,3548.3375399999995
2022-12-06 15:45:00,3830.6511499999997,1469.13964,1757.26678,3578.69164
2022-12-06 15:50:00,3866.7449800000004,1478.20206,1770.99172,3620.9542200000005
2022-12-06 15:55:00,3889.1963600000004,1484.5706599999999,1782.91914,3629.67998
2022-12-06 16:00:00,3905.61025,1497.0966,1796.64172,3631.786075
2022-12-06 16:05:00,3918.88346,1491.15554,1809.8649,3642.6533000000004
2022-12-06 16:10:00,3947.5789999999997,1505.3618999999999,1824.3930666666668,3655.264583333333
2022-12-06 16:15:00,3970.88998,1533.14804,1840.79412,3678.5958400000004
2022-12-06 16:20:00,3978.33116,1543.58628,1857.2414400000002,3699.68416
2022-12-06 16:25:00,4008.43266,1550.7076999999997,1873.1036199999999,3706.7738999999997
2022-12-06 16:30:00,4000.9581399999997,1551.6908799999999,1897.3474600000002,3737.92985
2022-12-06 16:35:00,4013.1125,1550.58735,1922.3768,3743.0716799999996
2022-12-06 16:40:00,4024.14386,1556.1478000000004,1958.19506,3757.418775
2022-12-06 16:45:00,4016.4658200000003,1565.37746,1974.01184,3767.6097333333328
2022-12-06 16:50:00,4033.6953000000003,1564.12912,1982.9609400000002,3776.03998
2022-12-06 16:55:00,4034.0676200000003,1586.0101600000003,2001.3394500000002,3793.31832
2022-12-06 17:00:00,4047.52064,1591.41478,2003.5498,3803.37664
2022-12-06 17:05:00,4035.56688,1595.4473199999998,2008.32042,3815.0850400000004
2022-12-06 17:10:00,4040.5193200000003,1587.2424999999998,2009.3731500000001,3794.99582
2022-12-06 17:15:00,4026.3706599999996,1592.8947799999999,2015.3995000000002,3788.67752
2022-12-06 17:20:00,4043.6540200000004,1591.15854,2019.33242,3784.66996
2022-12-06 17:25:00,4029.36464,1588.0404999999998,2018.38496,3789.1408599999995
2022-12-06 17:30:00,4010.4678200000003,1585.2767200000003,2014.30852,3787.473925
2022-12-06 17:35:00,4001.4640400000003,1584.2783599999998,2015.5281,3793.1187666666665
2022-12-06 17:40:00,3967.90812,1580.9909199999997,2007.4233,3767.38912
2022-12-06 17:45:00,3954.94734,1573.70752,1997.3504,3747.6508200000003
2022-12-06 17:50:00,3960.49895,1574.27228,1995.77438,3748.43125
2022-12-06 17:55:00,3984.637666666667,1577.73152,1997.22602,3755.12145
2022-12-06 18:00:00,3977.6353599999993,1582.4600999999998,2016.3778200000002,3748.01876
2022-12-06 18:05:00,3976.87014,1595.6335800000002,2019.7271400000002,3762.02664
2022-12-06 18:10:00,3954.1766799999996,1590.60776,2012.9230199999997,3751.35584
2022-12-06 18:15:00,3928.6456,1589.2172999999998,2006.25674,3734.2292
2022-12-06 18:20:00,3915.3837399999998,1582.9984,1999.1322599999999,3724.9562499999997
2022-12-06 18:25:00,3881.57334,1582.3855199999998,1986.66646,3713.4638333333337
2022-12-06 18:30:00,3912.27574,1586.17992,1974.68112,3721.5375199999994
2022-12-06 18:35:00,3917.49418,1595.03898,1971.06128,3726.38666
2022-12-06 18:40:00,3905.80948,1593.74326,1965.79764,3744.3500200000003
2022-12-06 18:45:00,3886.51734,1572.58028,1958.9214200000001,3736.6392
2022-12-06 18:50:00,3859.92896,1544.45382,1943.4309799999999,3704.12164
2022-12-06 18:55:00,3843.17402,1537.8372799999997,1926.61782,3670.475
2022-12-06 19:00:00,3812.77252,1530.482775,1904.51208,3634.8432999999995
2022-12-06 19:05:00,3789.4630000000006,1508.4877999999999,1898.0981,3623.6561999999994
2022-12-06 19:10:00,3776.1874799999996,1505.44336,1899.88842,3636.853466666667
2022-12-06 19:15:00,3735.0308999999993,1499.8854000000001,1891.4105800000002,3630.8241800000005
2022-12-06 19:20:00,3721.2658199999996,1494.72294,1874.4754400000002,3608.1591399999998
2022-12-06 19:25:00,3706.2168000000006,1486.31462,1865.06776,3601.94666
2022-12-06 19:30:00,3678.9268,1484.0246499999998,1854.24208,3582.5249799999997
2022-12-06 19:35:00,3647.6258800000005,1476.0317833333331,1839.5315999999998,3555.8271
2022-12-06 19:40:00,3646.87834,1478.69748,1819.40392,3554.1416400000003
2022-12-06 19:45:00,3627.2887,1480.42454,1796.84958,3525.5368000000003
2022-12-06 19:50:00,3618.26066,1463.36724,1789.9984800000002,3507.3291399999994
2022-12-06 19:55:00,3604.00072,1450.14208,1777.35536,3485.5191400000003
2022-12-06 20:00:00,3619.02598,1452.1594799999998,1774.5884800000003,3478.4608
2022-12-06 20:05:00,3606.4190000000003,1484.4885,1767.71234,3457.1625200000003
2022-12-06 20:10:00,3575.3545400000003,1486.10328,1750.67178,3435.6177000000002
2022-12-06 20:15:00,3565.7911200000003,1469.5080000000003,1736.74378,3429.768733333333
2022-12-06 20:20:00,3542.7818400000006,1462.29934,1718.71816,3404.6124499999996
2022-12-06 20:25:00,3522.7990400000003,1457.8198599999998,1709.72974,3381.8735999999994
2022-12-06 20:30:00,3556.1938,1431.4626400000002,1711.0818800000002,3350.5299999999997
2022-12-06 20:35:00,3542.4147,1407.8990999999999,1706.87592,3338.3093500000004
2022-12-06 20:40:00,3532.4130000000005,1392.52524,1694.6719,3328.0986333333335
2022-12-06 20:45:00,3501.3538,1391.47012,1684.72766,3305.9824200000003
2022-12-06 20:50:00,3485.8110399999996,1380.96176,1675.99858,3301.47086
2022-12-06 20:55:00,3464.80778,1370.62166,1670.66246,3290.0316599999996
2022-12-06 21:00:00,3445.0493800000004,1364.51444,1664.4444199999998,3254.97886
2022-12-06 21:05:00,3410.96864,1359.0850599999999,1649.15386,3240.33918
2022-12-06 21:10:00,3374.1481599999997,1385.09568,1637.47252,3211.2933199999998
2022-12-06 21:15:00,3341.1330000000003,1379.96776,1619.9814999999999,3197.7041600000002
2022-12-06 21:20:00,3330.8737800000004,1378.84116,1611.4594749999999,3184.0676750000002
2022-12-06 21:25:00,3297.72404,1364.4250399999996,1600.6658166666666,3164.001366666667
2022-12-06 21:30:00,3273.4001799999996,1350.46858,1584.3683400000002,3133.4807800000003
2022-12-06 21:35:00,3249.6973799999996,1338.0916,1571.18064,3120.6591799999997
2022-12-06 21:40:00,3223.10012,1320.102875,1555.1873799999998,3089.37492
2022-12-06 21:45:00,3197.4833799999997,1319.6120166666667,1544.19642,3080.45832
2022-12-06 21:50:00,3164.69468,1325.5000599999998,1526.9139200000002,3038.7866599999998
2022-12-06 21:55:00,3158.5079,1292.91168,1514.1215599999998,3006.17666
2022-12-06 22:00:00,3131.61162,1267.4843400000002,1486.44334,2981.4366600000003
2022-12-06 22:05:00,3105.65434,1222.2515600000002,1472.6515,2970.802125
2022-12-06 22:10:00,3060.4496599999998,1206.6537199999998,1456.94196,2935.487483333333
2022-12-06 22:15:00,3028.1811800000005,1186.2359,1438.53512,2901.85666
2022-12-06 22:20:00,3001.48202,1183.3108799999998,1424.0959599999999,2892.61502
2022-12-06 22:25:00,2986.48268,1177.094075,1407.98984,2869.11664
2022-12-06 22:30:00,2958.32152,1177.5625,1404.63186,2850.04086
2022-12-06 22:35:00,2934.64316,1162.0189,1400.5964399999998,2826.81916
2022-12-06 22:40:00,2909.73956,1158.4957600000002,1393.6142,2817.55168
2022-12-06 22:45:00,2876.70068,1145.72186,1371.33612,2769.1916599999995
2022-12-06 22:50:00,2846.5862800000004,1139.19285,1360.09058,2752.55105
2022-12-06 22:55:00,2823.7934999999998,1177.4886666666669,1346.4959199999998,2732.9132833333333
2022-12-06 23:00:00,2814.42652,1175.9829999999997,1342.72974,2724.28292
2022-12-06 23:05:00,2817.76734,1184.3261200000002,1328.7479600000001,2706.71414
2022-12-06 23:10:00,2799.95046,1151.6624399999998,1319.9359399999998,2691.0333400000004
2022-12-06 23:15:00,2778.9744800000003,1117.3185799999999,1300.57702,2660.1200400000002
2022-12-06 23:20:00,2768.30738,1150.75056,1290.92594,2644.2108
2022-12-06 23:25:00,2739.41052,1140.18624,1280.43268,2617.4425199999996
2022-12-06 23:30:00,2724.88328,1126.58278,1280.7093,2612.0474799999997
2022-12-06 23:35:00,2709.06988,1123.21708,1277.53134,2598.14002
2022-12-06 23:40:00,2689.6753,1105.7814,1265.62398,2581.7333200000003
2022-12-06 23:45:00,2676.5023,1104.9374200000002,1264.3226200000001,2570.61006
2022-12-06 23:50:00,2664.5781799999995,1086.16246,1261.0481599999998,2559.51172
2022-12-06 23:55:00,2649.8455000000004,1083.8040999999998,1264.2616000000003,2547.3208400000003
